This demonstration page uses our WeatherBlox Daily Observations layout. Learn more.

41.55636, -103.73856

Hourly Observations for August 8, 2016

Temp ( °F °C ) Dew Point ( °F °C ) Humidity (%) Winds ( mph kmh ) Pressure ( in mb ) Visibility ( mi km ) Precip ( " mm )
12:53 am 00:53 Cloudy 69 20.6 64 17.8 84 84 ENE 9 15 29.88 1012 10 16.0934 0 0
1:30 am 01:30 Cloudy with Thunderstorms 68 20 64 18 88 88 ENE 12 19 29.8 1009 10 16.0934 0 0
1:42 am 01:42 Cloudy 70 21 64 18 83 83 ENE 9 15 29.8 1009 10 16.0934 0 0
1:48 am 01:48 Cloudy with Thunderstorms 70 21 64 18 83 83 ENE 8 13 29.83 1010 10 16.0934 0 0
1:49 am 01:49 Cloudy with Thunderstorms 70 21 64 18 83 83 ENE 9 15 29.83 1010 10 16.0934 0 0
2:18 am 02:18 Cloudy with Heavy Thunderstorms 66 19 64 18 94 94 ESE 7 11 29.85 1011 1.75 2.816345 0 0
2:29 am 02:29 Cloudy with Heavy Thunderstorms 67 19.4 65 18.3 93 93 E 14 22 29.83 1010 2 3.21868 0.24 6.096
2:39 am 02:39 Cloudy with Light Thunderstorms 67 19.4 65 18.3 93 93 E 17 28 29.83 1010 5 8.0467 0.27 6.858
2:53 am 02:53 Cloudy with Thunderstorms 67 19.4 65 18.3 93 93 ENE 12 19 29.86 1011 4 6.43736 0.29 7.366
3:05 am 03:05 Mostly Cloudy with Nearby Thunderstorms 67 19.4 65 18.3 93 93 ENE 8 13 29.85 1011 7 11.26538 0 0.0254
3:29 am 03:29 Mostly Cloudy 67 19.4 65 18.3 93 93 E 8 13 29.83 1010 8 12.87472 0 0.0254
3:51 am 03:51 Mostly Cloudy 64 18 63 17 94 94 ENE 9 15 29.83 1010 8 12.87472 0 0.0254
3:53 am 03:53 Mostly Cloudy 65 18.3 62 16.7 90 90 ENE 9 15 29.86 1011 8 12.87472 0 0.0254
4:00 am 04:00 Mostly Cloudy 64 18 63 17 94 94 ENE 10 17 29.83 1010 10 16.0934 0 0
4:53 am 04:53 Cloudy with Light Rain 66 18.9 64 17.8 93 93 ESE 7 11 29.85 1011 10 16.0934 0 0.0254
5:22 am 05:22 Cloudy with Light Rain 66 19 64 18 94 94 ESE 12 19 29.83 1010 5 8.0467 0 0
5:53 am 05:53 Cloudy with Mist and Fog 66 18.9 64 17.8 93 93 SE 10 17 29.87 1011 2.5 4.02335 0 0.0254
6:04 am 06:04 Cloudy with Mist and Fog 66 19 64 18 94 94 SE 13 20 29.83 1010 3 4.82802 0 0
6:22 am 06:22 Cloudy with Mist and Fog 66 19 64 18 94 94 SE 12 19 29.83 1010 1.75 2.816345 0 0
6:42 am 06:42 Mostly Cloudy with Fog 64 18 64 18 100 100 SE 13 20 29.83 1010 0.5 0.80467 0 0
6:49 am 06:49 Mostly Cloudy with Fog 64 18 64 18 100 100 SE 10 17 29.83 1010 0.25 0.402335 0 0
6:53 am 06:53 Mostly Cloudy with Fog 65 18.3 64 17.8 97 97 SE 10 17 29.88 1012 0.25 0.402335 0 0
7:16 am 07:16 Mostly Cloudy with Fog 66 19 64 18 94 94 SE 9 15 29.83 1010 0.5 0.80467 0 0
7:53 am 07:53 Mostly Cloudy with Mist and Fog 66 18.9 65 18.3 96 96 SSE 7 11 29.88 1012 0.75 1.207005 0 0
8:01 am 08:01 Cloudy with Mist and Fog 66 18.9 65 18.3 96 96 SE 8 13 29.83 1010 1.5 2.41401 0 0
8:11 am 08:11 Cloudy with Mist and Fog 67 19.4 66 18.9 97 97 SE 8 13 29.83 1010 2.5 4.02335 0 0
8:21 am 08:21 Cloudy with Mist and Fog 68 20 66 18.9 93 93 SE 9 15 29.8 1009 4 6.43736 0 0
8:33 am 08:33 Cloudy with Mist and Fog 68 20 66 18.9 93 93 SE 10 17 29.8 1009 5 8.0467 0 0
8:53 am 08:53 Cloudy with Mist and Fog 70 21.1 67 19.4 90 90 SE 9 15 29.86 1011 6 9.65604 0 0
9:17 am 09:17 Cloudy 71 21.7 67 19.4 87 87 SE 10 17 29.77 1008 8 12.87472 0 0
9:26 am 09:26 Cloudy 73 23 68 20 83 83 ESE 10 17 29.74 1007 8 12.87472 0 0
9:49 am 09:49 Partly Cloudy 75 24 68 20 78 78 SE 10 17 29.71 1006 10 16.0934 0 0
9:53 am 09:53 Partly Cloudy 77 25 68 20 74 74 SE 12 19 29.82 1010 10 16.0934 0 0
10:53 am 10:53 Mostly Sunny 81 27.2 65 18.3 58 58 SSE 5 7 29.82 1010 10 16.0934 0 0
11:53 am 11:53 Sunny 85 29.4 61 16.1 45 45 VRB 6 9 29.8 1009 10 16.0934 0 0
12:53 pm 12:53 Sunny 87 30.6 58 14.4 37 37 undefined N/A 29.78 1008 10 16.0934 0 0
1:53 pm 13:53 Sunny 89 31.7 56 13.3 33 33 VRB 5 7 29.76 1008 10 16.0934 0 0
2:53 pm 14:53 Sunny 91 32.8 58 14.4 33 33 ENE 8 13 29.73 1007 10 16.0934 0 0
3:53 pm 15:53 Mostly Sunny 87 30.6 66 18.9 50 50 ENE 9 15 29.72 1006 10 16.0934 0 0
4:53 pm 16:53 Sunny 86 30 61 16.1 43 43 E 6 9 29.72 1007 10 16.0934 0 0
5:53 pm 17:53 Sunny 87 30.6 59 15 39 39 S 12 19 29.7 1006 10 16.0934 0 0.0254
6:53 pm 18:53 Sunny 82 27.8 58 14.4 44 44 SE 8 13 29.7 1006 10 16.0934 0 0
7:53 pm 19:53 Sunny 76 24.4 60 15.6 58 58 ESE 10 17 29.74 1007 10 16.0934 0 0
8:53 pm 20:53 Clear 72 22.2 59 15 64 64 SE 7 11 29.75 1008 10 16.0934 0 0
9:53 pm 21:53 Clear 69 20.6 58 14.4 68 68 ESE 7 11 29.75 1008 10 16.0934 0 0
10:53 pm 22:53 Clear 68 20 57 13.9 68 68 ESE 5 7 29.76 1008 10 16.0934 0 0
11:53 pm 23:53 Clear 69 20.6 55 12.8 61 61 VRB 7 11 29.76 1008 10 16.0934 0 0

Powered by AerisWeather